Location: Sweet Grass
(48.9965°N, 111.9649°W)
Time: 04:54:54
(UTC+00:00)

NOAA 18 - Visible Passes

Search period start: 23 March 2023 00:00
Search period end: 02 April 2023 00:00
Orbit: 840 x 859 km, 98.9° (Epoch: 22 March)

Date Brightness Start Highest point End Pass type
(mag) Time Alt. Az. Time Alt. Az. Time Alt. Az.
23 Mar 6.0 04:17:26 36° ENE 04:17:26 36° ENE 04:22:17 10° N visible
23 Mar 6.6 05:59:24 34° WNW 05:59:24 34° WNW 06:03:06 10° NNW visible
24 Mar 6.2 04:04:59 30° ENE 04:05:11 30° ENE 04:09:55 10° N visible
24 Mar 6.3 05:46:57 42° WNW 05:46:57 42° WNW 05:51:01 10° NNW visible
25 Mar 6.4 03:52:32 24° ENE 03:53:07 25° ENE 03:57:32 10° N visible
25 Mar 5.9 05:34:30 52° NW 05:34:30 52° NW 05:38:54 10° NNW visible
26 Mar 6.6 03:40:06 20° ENE 03:41:05 21° NE 03:45:04 10° N visible
26 Mar 5.6 05:22:03 63° NW 05:22:03 63° NW 05:26:44 10° NNW visible
26 Mar 7.7 07:04:01 12° WNW 07:04:01 12° WNW 07:05:12 10° WNW visible
27 Mar 6.9 03:27:38 16° ENE 03:29:04 17° NE 03:32:34 10° NNE visible
27 Mar 5.3 05:09:36 70° N 05:09:36 70° N 05:14:32 10° NNW visible
27 Mar 7.5 06:51:34 15° WNW 06:51:34 15° WNW 06:53:46 10° NW visible
28 Mar 7.1 03:15:11 12° ENE 03:17:05 14° NE 03:19:55 10° NNE visible
28 Mar 5.3 04:57:09 67° NE 04:57:09 67° NE 05:02:19 10° N visible
28 Mar 7.3 06:39:07 19° WNW 06:39:07 19° WNW 06:42:04 10° NW visible
29 Mar 7.2 03:03:11 10° ENE 03:05:06 12° NE 03:07:02 10° NNE visible
29 Mar 5.4 04:44:42 56° ENE 04:44:42 56° ENE 04:50:04 10° N visible
29 Mar 7.0 06:26:40 24° WNW 06:26:40 24° WNW 06:30:12 10° NW visible
30 Mar 5.6 04:32:15 45° ENE 04:32:29 46° ENE 04:37:47 10° N visible
30 Mar 6.7 06:14:13 30° WNW 06:14:13 30° WNW 06:18:15 10° NNW visible
31 Mar 5.9 04:19:48 36° ENE 04:20:23 38° ENE 04:25:28 10° N visible
31 Mar 6.3 06:01:46 37° WNW 06:01:46 37° WNW 06:06:14 10° NNW visible
01 Apr 6.1 04:07:21 29° E 04:08:18 31° ENE 04:13:07 10° N visible
01 Apr 6.0 05:49:19 47° W 05:49:19 47° W 05:54:09 10° NNW visible
